DW0170 Weather Reports


time (UTC)temp
C
wind
direction
speed
KPH
gust
KPH
rain 1hr
cm
rain 24hr
cm
rain mn
cm
humidity
%
barometer
mb
20260507211535 5 0 0.0 0.0 0.00 0.08 0.08 85 1009.0
20260507210050 5 0 0.0 0.0 0.00 0.08 0.08 84 1009.0
20260507204555 6 0 0.0 3.2 0.00 0.08 0.08 84 1009.1
20260507203036 6 0 0.0 0.0 0.00 0.08 0.08 83 1009.0
20260507201540 5 0 0.0 0.0 0.00 0.08 0.08 84 1008.8
20260507200040 5 0 0.0 0.0 0.00 0.08 0.08 84 1008.7
20260507194543 5 0 0.0 0.0 0.00 0.08 0.08 83 1008.5
20260507193039 6 0 0.0 0.0 0.00 0.08 0.08 82 1008.2
20260507191538 6 0 0.0 0.0 0.00 0.08 0.08 81 1008.2
20260507190043 6 0 0.0 0.0 0.00 0.08 0.08 80 1008.1
20260507184539 6 0 0.0 4.8 0.00 0.08 0.08 79 1008.1
20260507183041 7 0 0.0 0.0 0.00 0.08 0.08 80 1008.0
20260507181540 7 0 0.0 0.0 0.00 0.08 0.08 78 1007.9
20260507180047 7 0 0.0 0.0 0.00 0.08 0.08 77 1007.9
20260507174540 8 0 0.0 0.0 0.00 0.08 0.08 75 1007.9
20260507173037 8 0 0.0 0.0 0.00 0.08 0.08 73 1007.9
20260507171536 9 0 0.0 0.0 0.00 0.08 0.08 72 1007.7
20260507170036 9 0 0.0 0.0 0.00 0.08 0.08 66 1007.9
20260507164539 10 0 0.0 9.7 0.00 0.08 0.08 65 1007.7
20260507163038 10 0 0.0 9.7 0.00 0.08 0.08 65 1007.8
20260507161539 10 0 0.0 11.3 0.00 0.08 0.08 65 1007.8
20260507160039 10 0 0.0 9.7 0.00 0.08 0.08 66 1007.8
20260507154541 10 188 3.2 11.3 0.00 0.08 0.08 64 1007.7
20260507153045 10 0 0.0 8.0 0.00 0.08 0.08 65 1007.7
20260507151534 10 180 0.0 11.3 0.00 0.08 0.08 65 1007.7
20260507150038 10 187 0.0 14.5 0.00 0.08 0.08 64 1007.8
20260507144537 10 0 1.6 8.0 0.00 0.15 0.08 66 1007.8
20260507143038 11 0 0.0 9.7 0.00 0.15 0.08 65 1007.9
20260507141536 11 0 0.0 14.5 0.00 0.15 0.08 67 1007.8
20260507140048 11 0 4.8 14.5 0.00 0.15 0.08 66 1008.0
20260507134540 10 0 3.2 14.5 0.00 0.15 0.08 68 1008.1
20260507133039 10 196 3.2 14.5 0.00 0.15 0.08 71 1008.1
20260507131538 10 171 6.4 17.7 0.00 0.15 0.08 71 1008.1
20260507130048 10 0 4.8 14.5 0.00 0.15 0.08 73 1008.0
20260507124543 10 192 6.4 14.5 0.00 0.15 0.08 72 1008.1
20260507123047 9 178 6.4 17.7 0.00 0.15 0.08 69 1008.1
20260507121543 10 209 8.0 17.7 0.00 0.15 0.08 71 1008.0
20260507120045 11 178 8.0 19.3 0.00 0.15 0.08 71 1007.9
20260507114543 11 175 6.4 16.1 0.00 0.15 0.08 70 1007.9
20260507113039 11 177 6.4 19.3 0.00 0.15 0.08 75 1008.1
20260507111538 11 0 6.4 14.5 0.00 0.15 0.08 76 1008.0
20260507110038 10 207 4.8 17.7 0.00 0.15 0.08 79 1008.0
20260507104534 10 163 1.6 14.5 0.00 0.15 0.08 81 1008.0
20260507103039 10 182 8.0 16.1 0.00 0.15 0.08 79 1008.1
20260507101545 10 175 3.2 11.3 0.00 0.15 0.08 80 1008.2
20260507100041 10 192 3.2 14.5 0.00 0.15 0.08 76 1008.1
20260507094537 10 175 3.2 11.3 0.00 0.28 0.08 84 1008.1
20260507093039 10 0 0.0 9.7 0.00 0.28 0.08 84 1008.2
20260507091542 8 111 1.6 12.9 0.00 0.28 0.08 84 1008.1
20260507090042 8 190 4.8 14.5 0.00 0.28 0.08 85 1008.1
20260507084538 8 155 8.0 14.5 0.00 0.89 0.08 84 1008.0
20260507083046 10 138 1.6 9.7 0.00 0.89 0.08 79 1008.0
20260507081536 10 0 1.6 9.7 0.00 0.89 0.08 79 1007.9
20260507080042 9 0 1.6 6.4 0.00 0.89 0.08 82 1007.9
20260507074544 8 0 1.6 8.0 0.00 0.99 0.08 86 1007.8
20260507073047 7 0 0.0 6.4 0.00 0.99 0.08 86 1007.8
20260507071556 7 123 0.0 4.8 0.00 0.99 0.08 88 1007.6
20260507070038 7 0 1.6 9.7 0.00 0.99 0.08 91 1007.6
20260507064537 6 0 0.0 0.0 0.00 0.99 0.08 91 1007.6
20260507063039 6 0 0.0 0.0 0.00 0.99 0.08 92 1007.6
20260507061536 5 0 0.0 3.2 0.00 0.99 0.08 92 1007.5
20260507060043 4 0 0.0 0.0 0.00 0.99 0.08 92 1007.5
20260507054543 3 0 0.0 0.0 0.00 0.99 0.08 92 1007.4
20260507053043 3 0 0.0 0.0 0.00 0.99 0.08 92 1007.3
20260507051537 3 0 0.0 0.0 0.00 0.99 0.08 92 1007.1
20260507050035 3 0 0.0 0.0 0.00 0.99 0.08 92 1006.9
20260507044534 3 0 0.0 0.0 0.00 0.99 0.08 92 1006.9
20260507043039 3 0 0.0 3.2 0.00 0.99 0.08 92 1006.9
20260507041538 3 0 0.0 3.2 0.00 0.99 0.08 92 1006.9
20260507040048 3 277 1.6 4.8 0.00 0.99 0.08 92 1006.7
20260507034540 3 0 0.0 3.2 0.00 1.02 0.08 92 1006.7
20260507033043 3 0 0.0 0.0 0.00 1.02 0.08 92 1006.8
20260507031539 3 0 0.0 0.0 0.00 1.02 0.08 92 1006.6
20260507030038 3 0 0.0 0.0 0.00 1.02 0.08 92 1006.7
20260507024538 3 0 0.0 0.0 0.00 1.02 0.08 92 1006.8
20260507023037 3 0 0.0 0.0 0.00 1.02 0.08 92 1006.8
20260507021536 3 0 0.0 0.0 0.00 1.02 0.08 92 1006.6
20260507020040 4 0 0.0 0.0 0.03 1.02 0.08 92 1006.7
20260507014538 4 0 0.0 0.0 0.05 1.02 0.08 92 1006.6
20260507013041 4 0 0.0 0.0 0.08 1.02 0.08 92 1006.5
20260507011540 4 0 0.0 0.0 0.08 1.02 0.08 92 1006.6
20260507010038 4 0 0.0 0.0 0.05 0.99 0.05 92 1006.5
20260507004539 4 0 0.0 0.0 0.03 0.97 0.03 92 1006.5
20260507003035 4 0 0.0 0.0 0.00 0.94 0.00 92 1006.5
20260507001550 3 0 0.0 0.0 0.00 0.94 0.00 92 1006.4
20260507000040 3 0 0.0 0.0 0.00 0.94 0.00 92 1006.3
20260506234544 3 0 0.0 0.0 0.00 0.97 0.00 92 1006.2
20260506233038 3 0 0.0 0.0 0.00 0.97 0.00 92 1006.1
20260506231538 3 0 0.0 0.0 0.00 0.97 0.00 92 1006.2
20260506230035 3 0 0.0 0.0 0.00 0.97 0.00 92 1006.1
20260506224543 3 0 0.0 0.0 0.00 1.02 0.00 91 1006.0
20260506223041 3 0 0.0 1.6 0.00 1.02 0.00 91 1006.2
20260506221538 3 0 0.0 0.0 0.00 1.02 0.00 92 1006.1
20260506220051 3 0 0.0 0.0 0.00 1.02 0.00 92 1006.0
20260506214537 3 0 0.0 0.0 0.00 1.02 1.02 92 1006.1
20260506213041 3 0 0.0 0.0 0.00 1.02 1.02 92 1006.0